N1GUJ Weather Reports


Display with metric or nautical units.
time (UTC)temp
F
wind
direction
speed
MPH
gust
MPH
rain 1hr
in
rain 24hr
in
rain mn
in
humidity
%
barometer
mb
20260902002936 66 210 0.0 0.0 0.00 0.00 0.00 80 1016.4
20260902002436 66 210 0.0 0.0 0.00 0.00 0.00 79 1016.4
20260902001939 66 210 0.0 0.0 0.00 0.00 0.00 79 1016.4
20260902001439 66 210 0.0 0.0 0.00 0.00 0.00 79 1016.4
20260902000936 67 210 0.0 0.0 0.00 0.00 0.00 79 1016.4
20260902000437 67 210 0.0 0.0 0.00 0.00 0.00 79 1016.5
20260901235936 67 210 0.0 0.0 0.00 0.00 0.00 77 1016.6
20260901235436 67 210 0.0 0.0 0.00 0.00 0.00 78 1016.7
20260901234939 67 210 0.0 0.0 0.00 0.00 0.00 78 1016.6
20260901234436 67 210 0.0 0.0 0.00 0.00 0.00 78 1016.6
20260901233936 67 210 0.0 0.0 0.00 0.00 0.00 77 1016.6
20260901233436 67 210 0.0 0.0 0.00 0.00 0.00 77 1016.6
20260901232939 67 210 0.0 0.0 0.00 0.00 0.00 77 1016.7
20260901232438 68 210 0.0 0.0 0.00 0.00 0.00 76 1016.6
20260901231939 68 210 0.0 0.0 0.00 0.00 0.00 77 1016.6
20260901231444 68 210 0.0 0.0 0.00 0.00 0.00 76 1016.5
20260901230941 68 210 0.0 0.0 0.00 0.00 0.00 76 1016.4
20260901230439 68 210 0.0 0.0 0.00 0.00 0.00 76 1016.2
20260901225942 69 210 0.0 0.0 0.00 0.00 0.00 75 1016.2
20260901225441 69 210 0.0 0.0 0.00 0.00 0.00 75 1016.1
20260901224938 69 210 0.0 0.0 0.00 0.00 0.00 76 1016.1
20260901224435 69 210 0.0 0.0 0.00 0.00 0.00 74 1016.1
20260901223935 69 210 0.0 0.0 0.00 0.00 0.00 75 1016.2
20260901223436 70 210 0.0 2.0 0.00 0.00 0.00 74 1016.1
20260901222935 70 218 0.0 0.0 0.00 0.00 0.00 74 1016.0
20260901222444 70 218 0.0 0.0 0.00 0.00 0.00 75 1016.0
20260901221938 70 218 0.0 0.0 0.00 0.00 0.00 74 1016.0
20260901221435 70 218 0.0 0.0 0.00 0.00 0.00 73 1016.0
20260901220935 70 218 0.0 0.0 0.00 0.00 0.00 75 1015.9
20260901220435 70 218 0.0 0.0 0.00 0.00 0.00 75 1015.9
20260901215938 70 218 0.0 0.0 0.00 0.00 0.00 75 1015.9
20260901215441 70 218 0.0 0.0 0.00 0.00 0.00 76 1015.9
20260901214939 71 218 0.0 0.0 0.00 0.00 0.00 74 1015.7
20260901214435 71 218 0.0 1.0 0.00 0.00 0.00 73 1015.8
20260901213935 71 227 0.0 0.0 0.00 0.00 0.00 75 1015.9
20260901213435 71 227 0.0 0.0 0.00 0.00 0.00 74 1015.9
20260901212941 71 227 0.0 0.0 0.00 0.00 0.00 74 1015.9
20260901212436 71 227 0.0 0.0 0.00 0.00 0.00 74 1015.9
20260901211935 72 227 0.0 0.0 0.00 0.00 0.00 73 1015.9
20260901211438 72 227 0.0 0.0 0.00 0.00 0.00 72 1015.9
20260901210935 72 227 0.0 0.0 0.00 0.00 0.00 70 1015.9
20260901210438 73 227 0.0 0.0 0.00 0.00 0.00 69 1015.9
20260901205935 73 227 0.0 0.0 0.00 0.00 0.00 69 1015.8
20260901205435 73 227 0.0 0.0 0.00 0.00 0.00 68 1015.7
20260901204941 74 227 0.0 0.0 0.00 0.00 0.00 68 1015.6
20260901204438 74 227 0.0 0.0 0.00 0.00 0.00 67 1015.7
20260901203935 74 227 0.0 1.0 0.00 0.00 0.00 67 1015.5
20260901203441 75 227 0.0 2.0 0.00 0.00 0.00 63 1015.5
20260901202935 75 227 0.0 0.0 0.00 0.00 0.00 69 1015.4
20260901202435 75 227 0.0 1.0 0.00 0.00 0.00 68 1015.4
20260901201938 75 227 0.0 1.0 0.00 0.00 0.00 65 1015.4
20260901201438 75 227 0.0 0.0 0.00 0.00 0.00 66 1015.3
20260901200935 75 227 0.0 1.0 0.00 0.00 0.00 68 1015.3
20260901200438 75 227 0.0 1.0 0.00 0.00 0.00 65 1015.2
20260901195935 75 227 0.0 0.0 0.00 0.00 0.00 65 1015.3
20260901195435 75 227 0.0 0.0 0.00 0.00 0.00 64 1015.2
20260901194941 75 227 0.0 2.0 0.00 0.00 0.00 63 1015.2
20260901194438 75 226 0.0 3.0 0.00 0.00 0.00 65 1015.3
20260901193935 74 226 0.0 0.0 0.00 0.00 0.00 68 1015.4
20260901193435 74 226 1.0 3.0 0.00 0.00 0.00 67 1015.4
20260901192938 75 225 0.0 2.0 0.00 0.00 0.00 65 1015.5
20260901192437 75 225 1.0 4.0 0.00 0.00 0.00 66 1015.4
20260901191938 74 166 0.0 1.0 0.00 0.00 0.00 69 1015.4
20260901191438 74 166 0.0 0.0 0.00 0.00 0.00 69 1015.4
20260901190935 74 166 0.0 0.0 0.00 0.00 0.00 68 1015.4
20260901190434 75 166 0.0 0.0 0.00 0.00 0.00 66 1015.4
20260901185941 75 166 0.0 1.0 0.00 0.00 0.00 64 1015.4
20260901185440 75 166 0.0 0.0 0.00 0.00 0.00 63 1015.5
20260901184934 75 166 0.0 2.0 0.00 0.00 0.00 62 1015.4
20260901184434 75 166 2.0 2.0 0.00 0.00 0.00 63 1015.5
20260901183934 75 127 0.0 2.0 0.00 0.00 0.00 62 1015.4
20260901183437 75 202 0.0 1.0 0.00 0.00 0.00 63 1015.5
20260901182934 75 202 0.0 1.0 0.00 0.00 0.00 62 1015.5
20260901182434 75 202 0.0 3.0 0.00 0.00 0.00 63 1015.6
20260901181935 75 202 0.0 2.0 0.00 0.00 0.00 65 1015.7
20260901181437 75 104 0.0 0.0 0.00 0.00 0.00 65 1015.6
20260901180940 75 104 0.0 2.0 0.00 0.00 0.00 61 1015.6
20260901180437 75 106 0.0 1.0 0.00 0.00 0.00 57 1015.6
20260901175937 76 106 0.0 2.0 0.00 0.00 0.00 58 1015.6
20260901175438 76 106 0.0 1.0 0.00 0.00 0.00 57 1015.6
20260901174937 76 106 0.0 1.0 0.00 0.00 0.00 56 1015.6
20260901174434 76 106 0.0 2.0 0.00 0.00 0.00 55 1015.6
20260901173937 76 106 0.0 2.0 0.00 0.00 0.00 57 1015.5
20260901173437 75 103 0.0 1.0 0.00 0.00 0.00 57 1015.4
20260901172940 75 104 0.0 1.0 0.00 0.00 0.00 58 1015.4
20260901172435 75 104 0.0 1.0 0.00 0.00 0.00 56 1015.5
20260901171934 75 105 0.0 0.0 0.00 0.00 0.00 57 1015.6
20260901171437 75 105 0.0 3.0 0.00 0.00 0.00 57 1015.6
20260901170935 75 351 0.0 1.0 0.00 0.00 0.00 59 1015.6
20260901170443 75 351 0.0 1.0 0.00 0.00 0.00 56 1015.6
20260901165934 74 351 0.0 1.0 0.00 0.00 0.00 57 1015.7
20260901165443 74 354 0.0 1.0 0.00 0.00 0.00 59 1015.7
20260901164937 74 357 1.0 2.0 0.00 0.00 0.00 57 1015.8
20260901164434 74 0 0.0 2.0 0.00 0.00 0.00 55 1015.8
20260901163937 74 358 0.0 0.0 0.00 0.00 0.00 64 1015.8
20260901163434 74 358 0.0 1.0 0.00 0.00 0.00 57 1015.9
20260901162937 74 358 0.0 1.0 0.00 0.00 0.00 56 1016.0
20260901162437 74 358 0.0 0.0 0.00 0.00 0.00 62 1016.0
20260901161934 74 358 0.0 0.0 0.00 0.00 0.00 59 1016.0
20260901161437 74 358 0.0 1.0 0.00 0.00 0.00 54 1016.0
20260901160937 74 357 0.0 1.0 0.00 0.00 0.00 58 1016.0
20260901160434 75 357 0.0 1.0 0.00 0.00 0.00 56 1016.0
20260901155937 75 357 0.0 3.0 0.00 0.00 0.00 56 1016.0
20260901155434 76 136 0.0 1.0 0.00 0.00 0.00 51 1016.1
20260901154934 76 131 0.0 4.0 0.00 0.00 0.00 51 1016.1
20260901154434 75 147 1.0 1.0 0.00 0.00 0.00 53 1016.0
20260901153937 75 147 0.0 0.0 0.00 0.00 0.00 52 1016.0
20260901153437 74 147 0.0 1.0 0.00 0.00 0.00 55 1016.0
20260901152937 74 147 0.0 1.0 0.00 0.00 0.00 56 1016.0
20260901152433 73 147 0.0 1.0 0.00 0.00 0.00 61 1016.1
20260901151934 72 147 0.0 0.0 0.00 0.00 0.00 64 1016.1
20260901151434 71 147 0.0 1.0 0.00 0.00 0.00 64 1016.1
20260901150937 70 148 1.0 2.0 0.00 0.00 0.00 63 1016.1
20260901150437 70 262 0.0 4.0 0.00 0.00 0.00 60 1016.0
20260901145934 69 163 0.0 1.0 0.00 0.00 0.00 66 1016.1
20260901145436 68 163 0.0 2.0 0.00 0.00 0.00 65 1016.2
20260901144934 66 163 0.0 2.0 0.00 0.00 0.00 69 1016.0
20260901144433 65 166 0.0 2.0 0.00 0.00 0.00 72 1015.8
20260901143936 65 166 0.0 2.0 0.00 0.00 0.00 70 1015.9
20260901143433 64 166 0.0 2.0 0.00 0.00 0.00 72 1016.0
20260901142936 64 166 0.0 1.0 0.00 0.00 0.00 72 1015.9
20260901142433 63 166 0.0 1.0 0.00 0.00 0.00 73 1016.0
20260901141936 63 166 0.0 2.0 0.00 0.00 0.00 72 1016.0
20260901141436 63 166 0.0 1.0 0.00 0.00 0.00 73 1016.1
20260901140939 63 166 0.0 2.0 0.00 0.00 0.00 75 1016.2
20260901140436 63 166 0.0 0.0 0.00 0.00 0.00 75 1016.2
20260901135933 62 166 0.0 0.0 0.00 0.00 0.00 75 1016.1
20260901135433 62 166 0.0 0.0 0.00 0.00 0.00 75 1016.1
20260901134933 62 166 0.0 2.0 0.00 0.00 0.00 74 1016.1
20260901134436 62 166 0.0 1.0 0.00 0.00 0.00 73 1016.1
20260901133933 62 166 0.0 2.0 0.00 0.00 0.00 72 1016.1
20260901133439 62 166 0.0 0.0 0.00 0.00 0.00 75 1016.2
20260901132933 61 166 0.0 1.0 0.00 0.00 0.00 76 1016.2
20260901132433 61 166 0.0 0.0 0.00 0.00 0.00 76 1016.2
20260901131933 61 166 0.0 0.0 0.00 0.00 0.00 75 1016.2
20260901131433 61 166 0.0 0.0 0.00 0.00 0.00 75 1016.2
20260901130934 61 166 0.0 2.0 0.00 0.00 0.00 75 1016.3
20260901130436 61 333 1.0 2.0 0.00 0.00 0.00 75 1016.5
20260901125936 61 333 0.0 3.0 0.00 0.00 0.00 74 1016.4
20260901125433 61 109 0.0 2.0 0.00 0.00 0.00 76 1016.4
20260901124936 60 113 0.0 1.0 0.00 0.00 0.00 75 1016.2
20260901124433 60 114 2.0 4.0 0.00 0.00 0.00 77 1016.3
20260901123936 60 177 0.0 1.0 0.00 0.00 0.00 76 1016.3
20260901123436 60 177 0.0 0.0 0.00 0.00 0.00 75 1016.3
20260901122933 60 177 0.0 1.0 0.00 0.00 0.00 75 1016.4
20260901122433 60 177 0.0 0.0 0.00 0.00 0.00 77 1016.6
20260901121936 60 177 0.0 1.0 0.00 0.00 0.00 76 1016.7
20260901121436 60 177 0.0 0.0 0.00 0.00 0.00 77 1016.7
20260901120939 60 177 0.0 0.0 0.00 0.00 0.00 77 1016.7
20260901120433 60 177 0.0 1.0 0.00 0.00 0.00 76 1016.6
20260901115933 60 177 0.0 2.0 0.00 0.00 0.00 75 1016.6
20260901115433 60 177 0.0 0.0 0.00 0.00 0.00 74 1016.7
20260901114933 60 177 0.0 3.0 0.00 0.00 0.00 73 1016.7
20260901114433 60 216 0.0 2.0 0.00 0.00 0.00 75 1016.6
20260901113936 60 216 0.0 0.0 0.00 0.00 0.00 76 1016.5
20260901113442 60 216 0.0 0.0 0.00 0.00 0.00 77 1016.5
20260901112936 60 216 0.0 2.0 0.00 0.00 0.00 76 1016.4
20260901112433 60 216 2.0 2.0 0.00 0.00 0.00 77 1016.3
20260901111933 60 168 0.0 3.0 0.00 0.00 0.00 76 1016.1
20260901111433 60 195 1.0 2.0 0.00 0.00 0.00 76 1016.1
20260901110933 59 170 0.0 2.0 0.00 0.00 0.00 77 1016.2
20260901110432 59 170 0.0 0.0 0.00 0.00 0.00 78 1016.2
20260901105935 59 170 0.0 0.0 0.00 0.00 0.00 77 1016.2
20260901105432 59 170 0.0 0.0 0.00 0.00 0.00 77 1016.2
20260901104932 60 170 0.0 0.0 0.00 0.00 0.00 76 1016.1
20260901104433 60 170 0.0 1.0 0.00 0.00 0.00 77 1016.2
20260901103938 60 170 0.0 0.0 0.00 0.00 0.00 77 1016.2
20260901103433 60 170 0.0 0.0 0.00 0.00 0.00 77 1016.2
20260901102942 60 170 0.0 0.0 0.00 0.00 0.00 77 1016.1
20260901102435 60 170 0.0 3.0 0.00 0.00 0.00 76 1015.9
20260901101935 60 170 0.0 1.0 0.00 0.00 0.00 77 1015.9
20260901101432 60 170 1.0 1.0 0.00 0.00 0.00 75 1015.8
20260901100932 60 170 0.0 0.0 0.00 0.00 0.00 77 1015.9
20260901100432 60 170 0.0 1.0 0.00 0.00 0.00 76 1016.0
20260901095936 60 170 0.0 1.0 0.00 0.00 0.00 75 1015.9
20260901095432 60 170 0.0 2.0 0.00 0.00 0.00 75 1016.0
20260901094935 60 170 0.0 0.0 0.00 0.00 0.00 77 1016.2
20260901094432 60 170 0.0 0.0 0.00 0.00 0.00 76 1016.4
20260901093938 60 170 0.0 0.0 0.00 0.00 0.00 76 1016.3
20260901093432 60 170 0.0 0.0 0.00 0.00 0.00 76 1016.2
20260901092932 60 170 0.0 2.0 0.00 0.00 0.00 75 1016.1
20260901092432 60 173 0.0 3.0 0.00 0.00 0.00 74 1016.0
20260901091932 60 173 0.0 4.0 0.00 0.00 0.00 73 1016.0
20260901091432 61 197 0.0 1.0 0.00 0.00 0.00 75 1016.0
20260901090932 61 197 0.0 1.0 0.00 0.00 0.00 74 1016.0
20260901090432 60 197 0.0 2.0 0.00 0.00 0.00 73 1016.0
20260901085941 60 197 0.0 5.0 0.00 0.00 0.00 74 1016.2
20260901085435 60 161 0.0 1.0 0.00 0.00 0.00 75 1016.0
20260901084938 60 161 1.0 3.0 0.00 0.00 0.00 74 1016.0
20260901084432 60 162 0.0 1.0 0.00 0.00 0.00 74 1015.9
20260901083932 60 161 0.0 1.0 0.00 0.00 0.00 75 1015.9
20260901083432 60 161 0.0 1.0 0.00 0.00 0.00 74 1016.1
20260901082932 60 161 0.0 2.0 0.00 0.00 0.00 74 1016.2
20260901082432 60 161 0.0 1.0 0.00 0.00 0.00 77 1016.1
20260901081932 60 162 0.0 2.0 0.00 0.00 0.00 77 1016.1
20260901081432 60 216 0.0 1.0 0.00 0.00 0.00 77 1016.1
20260901080938 60 216 0.0 1.0 0.00 0.00 0.00 78 1016.2
20260901080432 60 216 0.0 0.0 0.00 0.00 0.00 77 1016.2
20260901075932 60 216 0.0 0.0 0.00 0.00 0.00 77 1016.3
20260901075438 60 216 0.0 1.0 0.00 0.00 0.00 77 1016.3
20260901074938 60 216 0.0 2.0 0.00 0.00 0.00 77 1016.2
20260901074435 60 216 0.0 2.0 0.00 0.00 0.00 77 1016.0
20260901073941 60 176 0.0 1.0 0.00 0.00 0.00 77 1016.0
20260901073432 60 176 0.0 3.0 0.00 0.00 0.00 77 1016.1
20260901072935 60 176 0.0 2.0 0.00 0.00 0.00 77 1016.2
20260901072432 60 176 0.0 2.0 0.00 0.00 0.00 77 1016.3
20260901071935 60 210 0.0 1.0 0.00 0.00 0.00 78 1016.3
20260901071432 60 210 0.0 2.0 0.00 0.00 0.00 77 1016.3
20260901070935 60 211 0.0 1.0 0.00 0.00 0.00 77 1016.4
20260901070432 60 210 0.0 1.0 0.00 0.00 0.00 76 1016.3
20260901065931 60 211 0.0 2.0 0.00 0.00 0.00 77 1016.5
20260901065434 60 192 0.0 2.0 0.00 0.00 0.00 77 1016.6
20260901064931 60 192 0.0 0.0 0.00 0.00 0.00 77 1016.6
20260901064437 60 192 0.0 3.0 0.00 0.00 0.00 78 1016.6
20260901063931 60 171 1.0 2.0 0.00 0.00 0.00 78 1016.6
20260901063431 59 171 0.0 1.0 0.00 0.00 0.00 78 1016.6
20260901062932 59 171 0.0 0.0 0.00 0.00 0.00 78 1016.7
20260901062431 59 171 0.0 1.0 0.00 0.00 0.00 78 1016.7
20260901061931 59 171 0.0 2.0 0.00 0.00 0.00 78 1016.7
20260901061431 60 171 0.0 1.0 0.00 0.00 0.00 78 1016.8
20260901060934 60 171 0.0 1.0 0.00 0.00 0.00 78 1016.8
20260901060437 60 172 0.0 1.0 0.00 0.00 0.00 78 1016.9
20260901055934 60 172 0.0 1.0 0.00 0.00 0.00 78 1017.0
20260901055434 60 172 0.0 1.0 0.00 0.00 0.00 78 1017.0
20260901054931 59 172 1.0 1.0 0.00 0.00 0.00 78 1017.0
20260901054437 59 172 0.0 0.0 0.00 0.00 0.00 79 1017.1
20260901053931 59 172 0.0 1.0 0.00 0.00 0.00 79 1017.1
20260901053437 59 172 0.0 0.0 0.00 0.00 0.00 79 1017.0
20260901052932 59 172 0.0 0.0 0.00 0.00 0.00 79 1017.0
20260901052431 60 172 0.0 1.0 0.00 0.00 0.00 79 1017.1
20260901051937 60 172 0.0 0.0 0.00 0.00 0.00 79 1017.2
20260901051437 60 172 0.0 1.0 0.00 0.00 0.00 78 1017.1
20260901050931 60 172 0.0 1.0 0.00 0.00 0.00 78 1017.1
20260901050437 60 172 0.0 1.0 0.00 0.00 0.00 78 1017.2
20260901045934 60 172 0.0 1.0 0.00 0.00 0.00 79 1017.2
20260901045434 60 172 0.0 1.0 0.00 0.00 0.00 78 1017.1
20260901044937 60 173 0.0 1.0 0.00 0.00 0.00 79 1017.1
20260901044434 60 173 0.0 2.0 0.00 0.00 0.00 78 1017.2
20260901043931 60 173 0.0 3.0 0.00 0.00 0.00 78 1017.3
20260901043431 60 173 0.0 0.0 0.00 0.00 0.00 79 1017.3
20260901042931 60 173 0.0 1.0 0.00 0.00 0.00 78 1017.3
20260901042434 60 173 0.0 4.0 0.00 0.00 0.00 79 1017.4
20260901041934 60 173 2.0 4.0 0.00 0.00 0.00 80 1017.4
20260901041437 60 203 1.0 1.0 0.00 0.00 0.00 80 1017.3
20260901040934 59 217 0.0 2.0 0.00 0.00 0.00 80 1017.4
20260901035934 59 135 0.0 2.0 0.00 0.00 0.00 81 1017.2
20260901035434 59 135 0.0 2.0 0.00 0.00 0.00 81 1017.1
20260901034934 59 135 0.0 2.0 0.00 0.00 0.00 81 1017.0
20260901034431 59 135 1.0 1.0 0.00 0.00 0.00 82 1017.0
20260901033937 59 135 0.0 1.0 0.00 0.00 0.00 83 1017.0
20260901033431 59 135 0.0 1.0 0.00 0.00 0.00 83 1017.1
20260901032930 60 135 0.0 0.0 0.00 0.00 0.00 83 1017.0
20260901032437 60 135 0.0 1.0 0.00 0.00 0.00 83 1017.0
20260901031931 60 135 0.0 0.0 0.00 0.00 0.00 83 1017.0
20260901031431 60 135 0.0 3.0 0.00 0.00 0.00 82 1016.9
20260901030931 60 135 0.0 1.0 0.00 0.00 0.00 82 1017.0
20260901030433 60 135 0.0 2.0 0.00 0.00 0.00 81 1017.0
20260901025940 60 135 0.0 1.0 0.00 0.00 0.00 81 1017.1
20260901025433 60 135 0.0 1.0 0.00 0.00 0.00 81 1017.1
20260901024930 60 135 0.0 1.0 0.00 0.00 0.00 81 1017.2
20260901024434 60 135 0.0 3.0 0.00 0.00 0.00 80 1017.2
20260901023933 60 135 0.0 2.0 0.00 0.00 0.00 80 1017.2
20260901023436 60 135 1.0 2.0 0.00 0.00 0.00 80 1017.2
20260901022930 60 135 0.0 2.0 0.00 0.00 0.00 80 1017.2
20260901022433 60 135 0.0 2.0 0.00 0.00 0.00 80 1017.2
20260901021933 60 135 0.0 2.0 0.00 0.00 0.00 81 1017.2
20260901021433 60 135 1.0 2.0 0.00 0.00 0.00 81 1017.2
20260901020940 60 135 0.0 2.0 0.00 0.00 0.00 81 1017.2
20260901020433 60 135 0.0 4.0 0.00 0.00 0.00 82 1017.2
20260901015934 60 232 0.0 0.0 0.00 0.00 0.00 82 1017.2
20260901015430 60 232 0.0 0.0 0.00 0.00 0.00 82 1017.3
20260901014930 60 232 0.0 0.0 0.00 0.00 0.00 82 1017.3
20260901014430 60 232 0.0 0.0 0.00 0.00 0.00 83 1017.3
20260901013930 60 232 0.0 0.0 0.00 0.00 0.00 83 1017.4
20260901013431 60 232 0.0 0.0 0.00 0.00 0.00 84 1017.3
20260901012930 60 232 0.0 0.0 0.00 0.00 0.00 84 1017.2
20260901012434 60 232 0.0 0.0 0.00 0.00 0.00 84 1017.3
20260901011930 59 232 0.0 0.0 0.00 0.00 0.00 85 1017.3
20260901011430 59 232 0.0 0.0 0.00 0.00 0.00 85 1017.3
20260901010936 59 232 0.0 0.0 0.00 0.00 0.00 85 1017.3
20260901010430 59 232 0.0 0.0 0.00 0.00 0.00 84 1017.3
20260901005930 59 232 0.0 0.0 0.00 0.00 0.00 83 1017.2
20260901005430 59 232 0.0 0.0 0.00 0.00 0.00 82 1017.1
20260901004930 60 232 0.0 0.0 0.00 0.00 0.00 81 1017.1
20260901004434 60 232 0.0 0.0 0.00 0.00 0.00 80 1017.2
20260901003930 60 232 0.0 0.0 0.00 0.00 0.00 79 1017.2
20260901003436 61 232 0.0 0.0 0.00 0.00 0.00 79 1017.3